Year,Month,Day,Hour,Minute,Value (Times are PST for windgust in km/hr)
2017,05,23,00,21,3.20
2017,05,23,00,22,3.20
2017,05,23,00,23,3.20
2017,05,23,00,24,3.20
2017,05,23,00,25,6.40
2017,05,23,00,26,6.40
2017,05,23,00,27,6.40
2017,05,23,00,28,3.20
2017,05,23,00,29,3.20
2017,05,23,00,30,3.20
2017,05,23,00,31,1.60
2017,05,23,00,32,1.60
2017,05,23,00,33,1.60
2017,05,23,01,06,3.20
2017,05,23,01,07,1.60
2017,05,23,01,08,1.60
2017,05,23,01,15,3.20
2017,05,23,01,16,3.20
2017,05,23,01,17,3.20
2017,05,23,01,18,3.20
2017,05,23,01,19,3.20
2017,05,23,01,20,3.20
2017,05,23,01,21,3.20
2017,05,23,01,22,3.20
2017,05,23,01,23,3.20
2017,05,23,01,24,3.20
2017,05,23,01,40,1.60
2017,05,23,01,41,3.20
2017,05,23,01,42,3.20
2017,05,23,01,43,3.20
2017,05,23,01,44,4.80
2017,05,23,01,45,3.20
2017,05,23,01,46,3.20
2017,05,23,06,40,3.20
2017,05,23,06,41,3.20
2017,05,23,06,42,4.80
2017,05,23,06,43,3.20
2017,05,23,06,44,3.20
2017,05,23,06,45,3.20
2017,05,23,06,46,3.20
2017,05,23,06,47,1.60
2017,05,23,06,48,4.80
2017,05,23,06,49,9.60
2017,05,23,06,50,8.10
2017,05,23,06,51,8.10
2017,05,23,06,52,8.10
2017,05,23,06,53,9.60
2017,05,23,06,54,8.10
2017,05,23,06,55,6.40
2017,05,23,06,56,6.40
2017,05,23,06,57,9.60
2017,05,23,06,58,6.40
2017,05,23,06,59,3.20
2017,05,23,07,00,4.80
2017,05,23,07,01,1.60
2017,05,23,07,02,1.60
2017,05,23,07,03,1.60
2017,05,23,07,04,6.40
2017,05,23,07,05,8.10
2017,05,23,07,06,4.80
2017,05,23,07,07,8.10
2017,05,23,07,08,9.60
2017,05,23,07,09,9.60
2017,05,23,07,10,6.40
2017,05,23,07,11,4.80
2017,05,23,07,12,3.20
2017,05,23,07,13,4.80
2017,05,23,07,14,4.80
2017,05,23,07,15,8.10
2017,05,23,07,16,8.10
2017,05,23,07,17,8.10
2017,05,23,07,18,8.10
2017,05,23,07,19,8.10
2017,05,23,07,20,4.80
2017,05,23,07,21,3.20
2017,05,23,07,29,4.80
2017,05,23,07,30,4.80
2017,05,23,07,31,3.20
2017,05,23,07,32,3.20
2017,05,23,07,33,3.20
2017,05,23,07,34,3.20
2017,05,23,07,35,3.20
2017,05,23,07,36,1.60
2017,05,23,07,37,1.60
2017,05,23,07,38,3.20
2017,05,23,07,39,1.60
2017,05,23,07,40,6.40
2017,05,23,07,41,3.20
2017,05,23,07,42,3.20
2017,05,23,07,44,3.20
2017,05,23,07,45,3.20
2017,05,23,07,46,4.80
2017,05,23,07,47,4.80
2017,05,23,07,48,6.40
2017,05,23,07,49,6.40
2017,05,23,07,50,6.40
2017,05,23,07,51,6.40
2017,05,23,07,52,4.80
2017,05,23,07,53,4.80
2017,05,23,07,54,3.20
2017,05,23,07,55,1.60
2017,05,23,07,56,4.80
2017,05,23,08,00,4.80
2017,05,23,08,01,4.80
2017,05,23,08,02,3.20
2017,05,23,08,03,3.20
2017,05,23,08,04,4.80
2017,05,23,08,05,4.80
2017,05,23,08,06,1.60
2017,05,23,08,07,1.60
2017,05,23,08,08,3.20
2017,05,23,08,09,4.80
2017,05,23,08,10,1.60
2017,05,23,08,11,4.80
2017,05,23,08,12,4.80
2017,05,23,08,13,3.20
2017,05,23,08,14,3.20
2017,05,23,08,15,3.20
2017,05,23,08,19,1.60
2017,05,23,08,24,3.20
2017,05,23,08,25,3.20
2017,05,23,08,26,3.20
2017,05,23,08,39,4.80
2017,05,23,08,40,6.40
2017,05,23,08,41,8.10
2017,05,23,08,42,3.20
2017,05,23,08,43,3.20
2017,05,23,08,44,3.20
2017,05,23,08,45,8.10
2017,05,23,08,46,9.60
2017,05,23,08,47,6.40
2017,05,23,08,48,6.40
2017,05,23,08,49,3.20
2017,05,23,08,55,3.20
2017,05,23,08,56,3.20
2017,05,23,08,59,3.20
2017,05,23,09,00,6.40
2017,05,23,09,01,4.80
2017,05,23,09,02,4.80
2017,05,23,09,03,6.40
2017,05,23,09,04,4.80
2017,05,23,09,05,3.20
2017,05,23,09,06,4.80
2017,05,23,09,07,6.40
2017,05,23,09,08,6.40
2017,05,23,09,09,6.40
2017,05,23,09,10,4.80
2017,05,23,09,11,4.80
2017,05,23,09,12,6.40
2017,05,23,09,13,4.80
2017,05,23,09,14,6.40
2017,05,23,09,15,8.10
2017,05,23,09,16,8.10
2017,05,23,09,17,9.60
2017,05,23,09,18,8.10
2017,05,23,09,19,6.40
2017,05,23,09,20,8.10
2017,05,23,09,21,8.10
2017,05,23,09,22,6.40
2017,05,23,09,23,4.80
2017,05,23,09,24,4.80
2017,05,23,09,25,6.40
2017,05,23,09,26,6.40
2017,05,23,09,27,6.40
2017,05,23,09,28,4.80
2017,05,23,09,29,3.20
2017,05,23,09,30,6.40
2017,05,23,09,31,8.10
2017,05,23,09,32,6.40
2017,05,23,09,33,3.20
2017,05,23,09,34,8.10
2017,05,23,09,35,4.80
2017,05,23,09,36,3.20
2017,05,23,09,37,3.20
2017,05,23,09,38,3.20
2017,05,23,09,39,3.20
2017,05,23,09,40,4.80
2017,05,23,09,41,6.40
2017,05,23,09,42,4.80
2017,05,23,09,43,6.40
2017,05,23,09,44,4.80
2017,05,23,09,45,6.40
2017,05,23,09,46,3.20
2017,05,23,09,47,3.20
2017,05,23,09,48,4.80
2017,05,23,09,49,4.80
2017,05,23,09,50,4.80
2017,05,23,09,51,8.10
2017,05,23,09,52,6.40
2017,05,23,09,53,8.10
2017,05,23,09,54,9.60
2017,05,23,09,55,8.10
2017,05,23,09,56,9.60
2017,05,23,09,57,4.80
2017,05,23,09,58,3.20
2017,05,23,09,59,1.60
2017,05,23,10,00,6.40
2017,05,23,10,01,6.40
2017,05,23,10,02,4.80
2017,05,23,10,03,8.10
2017,05,23,10,04,6.40
2017,05,23,10,05,6.40
2017,05,23,10,06,11.30
2017,05,23,10,07,9.60
2017,05,23,10,08,6.40
2017,05,23,10,09,8.10
2017,05,23,10,10,8.10
2017,05,23,10,11,6.40
2017,05,23,10,12,6.40
2017,05,23,10,13,6.40
2017,05,23,10,14,8.10
2017,05,23,10,15,11.30
2017,05,23,10,16,9.60
2017,05,23,10,17,11.30
2017,05,23,10,18,8.10
2017,05,23,10,19,8.10
2017,05,23,10,20,6.40
2017,05,23,10,21,8.10
2017,05,23,10,22,11.30
2017,05,23,10,23,8.10
2017,05,23,10,24,6.40
2017,05,23,10,25,9.60
2017,05,23,10,26,6.40
2017,05,23,10,27,11.30
2017,05,23,10,28,9.60
2017,05,23,10,29,11.30
2017,05,23,10,30,9.60
2017,05,23,10,31,9.60
2017,05,23,10,32,11.30
2017,05,23,10,33,8.10
2017,05,23,10,34,8.10
2017,05,23,10,35,9.60
2017,05,23,10,36,12.90
2017,05,23,10,37,12.90
2017,05,23,10,38,12.90
2017,05,23,10,39,11.30
2017,05,23,10,40,9.60
2017,05,23,10,41,8.10
2017,05,23,10,42,9.60
2017,05,23,10,43,6.40
2017,05,23,10,44,8.10
2017,05,23,10,45,8.10
2017,05,23,10,46,8.10
2017,05,23,10,47,11.30
2017,05,23,10,48,12.90
2017,05,23,10,49,14.50
2017,05,23,10,50,9.60
2017,05,23,10,51,9.60
2017,05,23,10,52,8.10
2017,05,23,10,53,8.10
2017,05,23,10,54,9.60
2017,05,23,10,55,12.90
2017,05,23,10,56,9.60
2017,05,23,10,57,12.90
2017,05,23,10,58,8.10
2017,05,23,10,59,6.40
2017,05,23,11,00,6.40
2017,05,23,11,01,8.10
2017,05,23,11,02,9.60
2017,05,23,11,03,6.40
2017,05,23,11,04,8.10
2017,05,23,11,05,6.40
2017,05,23,11,06,8.10
2017,05,23,11,07,4.80
2017,05,23,11,08,6.40
2017,05,23,11,09,8.10
2017,05,23,11,10,6.40
2017,05,23,11,11,6.40
2017,05,23,11,12,6.40
2017,05,23,11,13,6.40
2017,05,23,11,14,6.40
2017,05,23,11,15,3.20
2017,05,23,11,16,8.10
2017,05,23,11,17,6.40
2017,05,23,11,18,6.40
2017,05,23,11,19,6.40
2017,05,23,11,20,3.20
2017,05,23,11,21,1.60
2017,05,23,11,22,6.40
2017,05,23,11,23,4.80
2017,05,23,11,24,6.40
2017,05,23,11,25,8.10
2017,05,23,11,26,6.40
2017,05,23,11,27,3.20
2017,05,23,11,28,3.20
2017,05,23,11,29,6.40
2017,05,23,11,30,8.10
2017,05,23,11,31,8.10
2017,05,23,11,32,8.10
2017,05,23,11,33,4.80
2017,05,23,11,34,3.20
2017,05,23,11,35,3.20
2017,05,23,11,36,6.40
2017,05,23,11,37,20.90
2017,05,23,11,38,29.00
2017,05,23,11,39,22.50
2017,05,23,11,40,14.50
2017,05,23,11,41,20.90
2017,05,23,11,42,22.50
2017,05,23,11,43,32.20
2017,05,23,11,44,27.40
2017,05,23,11,45,12.90
2017,05,23,11,46,17.70
2017,05,23,11,47,22.50
2017,05,23,11,48,29.00
2017,05,23,11,49,19.30
2017,05,23,11,50,24.20
2017,05,23,11,51,19.30
2017,05,23,11,52,16.10
2017,05,23,11,53,11.30
2017,05,23,11,54,11.30
2017,05,23,11,55,27.40
2017,05,23,11,56,17.70
2017,05,23,11,57,22.50
2017,05,23,11,58,19.30
2017,05,23,11,59,29.00
2017,05,23,12,00,14.50
2017,05,23,12,01,16.10
2017,05,23,12,02,22.50
2017,05,23,12,03,20.90
2017,05,23,12,04,29.00
2017,05,23,12,05,24.20
2017,05,23,12,06,20.90
2017,05,23,12,07,16.10
2017,05,23,12,08,16.10
2017,05,23,12,09,20.90
2017,05,23,12,10,24.20
2017,05,23,12,11,14.50
2017,05,23,12,12,22.50
2017,05,23,12,13,20.90
2017,05,23,12,14,30.60
2017,05,23,12,15,17.70
2017,05,23,12,16,20.90
2017,05,23,12,17,17.70
2017,05,23,12,18,19.30
2017,05,23,12,19,25.70
2017,05,23,12,20,27.40
2017,05,23,12,21,19.30
2017,05,23,12,22,37.00
2017,05,23,12,23,24.20
2017,05,23,12,24,16.10
2017,05,23,12,25,40.20
2017,05,23,12,26,29.00
2017,05,23,12,27,32.20
2017,05,23,12,28,24.20
2017,05,23,12,29,24.20
2017,05,23,12,30,27.40
2017,05,23,12,31,25.70
2017,05,23,12,32,22.50
2017,05,23,12,33,30.60
2017,05,23,12,34,17.70
2017,05,23,12,35,24.20
2017,05,23,12,36,29.00
2017,05,23,12,37,29.00
2017,05,23,12,38,33.80
2017,05,23,12,39,25.70
2017,05,23,12,40,30.60
2017,05,23,12,41,32.20
2017,05,23,12,42,24.20
2017,05,23,12,43,16.10
2017,05,23,12,44,20.90
2017,05,23,12,45,27.40
2017,05,23,12,46,38.60
2017,05,23,12,47,17.70
2017,05,23,12,48,30.60
2017,05,23,12,49,30.60
2017,05,23,12,50,25.70
2017,05,23,12,51,25.70
2017,05,23,12,52,24.20
2017,05,23,12,53,27.40
2017,05,23,12,54,22.50
2017,05,23,12,55,20.90
2017,05,23,12,56,16.10
2017,05,23,12,57,22.50
2017,05,23,12,58,43.50
2017,05,23,12,59,35.40
2017,05,23,13,00,20.90
2017,05,23,13,01,17.70
2017,05,23,13,02,20.90
2017,05,23,13,03,14.50
2017,05,23,13,04,27.40
2017,05,23,13,05,29.00
2017,05,23,13,06,25.70
2017,05,23,13,07,27.40
2017,05,23,13,08,25.70
2017,05,23,13,09,19.30
2017,05,23,13,10,20.90
2017,05,23,13,11,29.00
2017,05,23,13,12,30.60
2017,05,23,13,13,41.80
2017,05,23,13,14,29.00
2017,05,23,13,15,29.00
2017,05,23,13,16,30.60
2017,05,23,13,17,32.20
2017,05,23,13,18,30.60
2017,05,23,13,19,20.90
2017,05,23,13,20,22.50
2017,05,23,13,21,35.40
2017,05,23,13,22,27.40
2017,05,23,13,23,24.20
2017,05,23,13,24,24.20
2017,05,23,13,25,27.40
2017,05,23,13,26,24.20
2017,05,23,13,27,24.20
2017,05,23,13,28,27.40
2017,05,23,13,29,29.00
2017,05,23,13,30,29.00
2017,05,23,13,31,35.40
2017,05,23,13,32,30.60
2017,05,23,13,33,30.60
2017,05,23,13,34,25.70
2017,05,23,13,35,33.80
2017,05,23,13,36,32.20
2017,05,23,13,37,33.80
2017,05,23,13,38,24.20
2017,05,23,13,39,24.20
2017,05,23,13,40,22.50
2017,05,23,13,41,30.60
2017,05,23,13,42,22.50
2017,05,23,13,43,32.20
2017,05,23,13,44,24.20
2017,05,23,13,45,29.00
2017,05,23,13,46,45.10
2017,05,23,13,47,32.20
2017,05,23,13,48,32.20
2017,05,23,13,49,24.20
2017,05,23,13,50,24.20
2017,05,23,13,51,22.50
2017,05,23,13,52,29.00
2017,05,23,13,53,22.50
2017,05,23,13,54,11.30
2017,05,23,13,55,27.40
2017,05,23,13,56,30.60
2017,05,23,13,57,30.60
2017,05,23,13,58,41.80
2017,05,23,13,59,45.10
2017,05,23,14,00,30.60
2017,05,23,14,01,38.60
2017,05,23,14,02,33.80
2017,05,23,14,03,30.60
2017,05,23,14,04,40.20
2017,05,23,14,05,33.80
2017,05,23,14,06,32.20
2017,05,23,14,07,32.20
2017,05,23,14,08,35.40
2017,05,23,14,09,37.00
2017,05,23,14,10,32.20
2017,05,23,14,11,27.40
2017,05,23,14,12,37.00
2017,05,23,14,13,33.80
2017,05,23,14,14,27.40
2017,05,23,14,15,41.80
2017,05,23,14,16,30.60
2017,05,23,14,17,30.60
2017,05,23,14,18,30.60
2017,05,23,14,19,37.00
2017,05,23,14,20,33.80
2017,05,23,14,21,38.60
2017,05,23,14,22,29.00
2017,05,23,14,23,32.20
2017,05,23,14,24,33.80
2017,05,23,14,25,33.80
2017,05,23,14,26,37.00
2017,05,23,14,27,24.20
2017,05,23,14,28,33.80
2017,05,23,14,29,30.60
2017,05,23,14,30,33.80
2017,05,23,14,31,30.60
2017,05,23,14,32,32.20
2017,05,23,14,33,37.00
2017,05,23,14,34,37.00
2017,05,23,14,35,32.20
2017,05,23,14,36,29.00
2017,05,23,14,37,32.20
2017,05,23,14,38,27.40
2017,05,23,14,39,32.20
2017,05,23,14,40,27.40
2017,05,23,14,41,29.00
2017,05,23,14,42,32.20
2017,05,23,14,43,32.20
2017,05,23,14,44,32.20
2017,05,23,14,45,33.80
2017,05,23,14,46,32.20
2017,05,23,14,47,19.30
2017,05,23,14,48,22.50
2017,05,23,14,49,32.20
2017,05,23,14,50,35.40
2017,05,23,14,51,32.20
2017,05,23,14,52,29.00
2017,05,23,14,53,22.50
2017,05,23,14,54,30.60
2017,05,23,14,55,25.70
2017,05,23,14,56,30.60
2017,05,23,14,57,32.20
2017,05,23,14,58,27.40
2017,05,23,14,59,24.20
2017,05,23,15,00,24.20
2017,05,23,15,01,29.00
2017,05,23,15,02,29.00
2017,05,23,15,03,33.80
2017,05,23,15,04,30.60
2017,05,23,15,05,27.40
2017,05,23,15,06,37.00
2017,05,23,15,07,30.60
2017,05,23,15,08,37.00
2017,05,23,15,09,22.50
2017,05,23,15,10,33.80
2017,05,23,15,11,38.60
2017,05,23,15,12,33.80
2017,05,23,15,13,32.20
2017,05,23,15,14,30.60
2017,05,23,15,15,24.20
2017,05,23,15,16,25.70
2017,05,23,15,17,29.00
2017,05,23,15,18,30.60
2017,05,23,15,19,27.40
2017,05,23,15,20,37.00
2017,05,23,15,21,38.60
2017,05,23,15,22,27.40
2017,05,23,15,23,35.40
2017,05,23,15,24,45.10
2017,05,23,15,25,37.00
2017,05,23,15,26,37.00
2017,05,23,15,27,29.00
2017,05,23,15,28,27.40
2017,05,23,15,29,32.20
2017,05,23,15,30,35.40
2017,05,23,15,31,30.60
2017,05,23,15,32,32.20
2017,05,23,15,33,33.80
2017,05,23,15,34,30.60
2017,05,23,15,35,35.40
2017,05,23,15,36,45.10
2017,05,23,15,37,38.60
2017,05,23,15,38,25.70
2017,05,23,15,39,33.80
2017,05,23,15,40,29.00
2017,05,23,15,41,30.60
2017,05,23,15,42,25.70
2017,05,23,15,43,32.20
2017,05,23,15,44,33.80
2017,05,23,15,45,29.00
2017,05,23,15,46,25.70
2017,05,23,15,47,35.40
2017,05,23,15,48,29.00
2017,05,23,15,49,38.60
2017,05,23,15,50,30.60
2017,05,23,15,51,30.60
2017,05,23,15,52,25.70
2017,05,23,15,53,19.30
2017,05,23,15,54,24.20
2017,05,23,15,55,30.60
2017,05,23,15,56,30.60
2017,05,23,15,57,29.00
2017,05,23,15,58,46.70
2017,05,23,15,59,30.60
2017,05,23,16,00,37.00
2017,05,23,16,01,40.20
2017,05,23,16,02,30.60
2017,05,23,16,03,40.20
2017,05,23,16,04,32.20
2017,05,23,16,05,38.60
2017,05,23,16,06,32.20
2017,05,23,16,07,29.00
2017,05,23,16,08,35.40
2017,05,23,16,09,40.20
2017,05,23,16,10,33.80
2017,05,23,16,11,30.60
2017,05,23,16,12,29.00
2017,05,23,16,13,38.60
2017,05,23,16,14,32.20
2017,05,23,16,15,30.60
2017,05,23,16,16,32.20
2017,05,23,16,17,25.70
2017,05,23,16,18,19.30
2017,05,23,16,19,25.70
2017,05,23,16,20,25.70
2017,05,23,16,21,33.80
2017,05,23,16,22,35.40
2017,05,23,16,23,24.20
2017,05,23,16,24,29.00
2017,05,23,16,25,25.70
2017,05,23,16,26,27.40
2017,05,23,16,27,33.80
2017,05,23,16,28,38.60
2017,05,23,16,29,30.60
2017,05,23,16,30,29.00
2017,05,23,16,31,27.40
2017,05,23,16,32,22.50
2017,05,23,16,33,20.90
2017,05,23,16,34,27.40
2017,05,23,16,35,37.00
2017,05,23,16,36,29.00
2017,05,23,16,37,20.90
2017,05,23,16,38,17.70
2017,05,23,16,39,22.50
2017,05,23,16,40,20.90
2017,05,23,16,41,30.60
2017,05,23,16,42,27.40
2017,05,23,16,43,27.40
2017,05,23,16,44,32.20
2017,05,23,16,45,14.50
2017,05,23,16,46,16.10
2017,05,23,16,47,32.20
2017,05,23,16,48,35.40
2017,05,23,16,49,32.20
2017,05,23,16,50,24.20
2017,05,23,16,51,30.60
2017,05,23,16,52,37.00
2017,05,23,16,53,20.90
2017,05,23,16,54,16.10
2017,05,23,16,55,22.50
2017,05,23,16,56,20.90
2017,05,23,16,57,22.50
2017,05,23,16,58,20.90
2017,05,23,16,59,14.50
2017,05,23,17,00,27.40
2017,05,23,17,01,30.60
2017,05,23,17,02,24.20
2017,05,23,17,03,22.50
2017,05,23,17,04,20.90
2017,05,23,17,05,30.60
2017,05,23,17,06,33.80
2017,05,23,17,07,37.00
2017,05,23,17,08,30.60
2017,05,23,17,09,25.70
2017,05,23,17,10,27.40
2017,05,23,17,11,25.70
2017,05,23,17,12,33.80
2017,05,23,17,13,30.60
2017,05,23,17,14,30.60
2017,05,23,17,15,20.90
2017,05,23,17,16,20.90
2017,05,23,17,17,11.30
2017,05,23,17,18,11.30
2017,05,23,17,19,27.40
2017,05,23,17,20,27.40
2017,05,23,17,21,30.60
2017,05,23,17,22,27.40
2017,05,23,17,23,32.20
2017,05,23,17,24,19.30
2017,05,23,17,25,24.20
2017,05,23,17,26,27.40
2017,05,23,17,27,20.90
2017,05,23,17,28,22.50
2017,05,23,17,29,30.60
2017,05,23,17,30,19.30
2017,05,23,17,31,22.50
2017,05,23,17,32,25.70
2017,05,23,17,33,20.90
2017,05,23,17,34,22.50
2017,05,23,17,35,19.30
2017,05,23,17,36,20.90
2017,05,23,17,37,16.10
2017,05,23,17,38,14.50
2017,05,23,17,39,19.30
2017,05,23,17,40,11.30
2017,05,23,17,41,11.30
2017,05,23,17,42,16.10
2017,05,23,17,43,17.70
2017,05,23,17,44,16.10
2017,05,23,17,45,12.90
2017,05,23,17,46,19.30
2017,05,23,17,47,16.10
2017,05,23,17,48,17.70
2017,05,23,17,49,19.30
2017,05,23,17,50,25.70
2017,05,23,17,51,22.50
2017,05,23,17,52,19.30
2017,05,23,17,53,17.70
2017,05,23,17,54,16.10
2017,05,23,17,55,17.70
2017,05,23,17,56,11.30
2017,05,23,17,57,12.90
2017,05,23,17,58,14.50
2017,05,23,17,59,27.40
2017,05,23,18,00,32.20
2017,05,23,18,01,12.90
2017,05,23,18,02,11.30
2017,05,23,18,03,19.30
2017,05,23,18,04,29.00
2017,05,23,18,05,22.50
2017,05,23,18,06,19.30
2017,05,23,18,07,19.30
2017,05,23,18,08,24.20
2017,05,23,18,09,27.40
2017,05,23,18,10,25.70
2017,05,23,18,11,19.30
2017,05,23,18,12,11.30
2017,05,23,18,13,11.30
2017,05,23,18,14,11.30
2017,05,23,18,15,11.30
2017,05,23,18,16,17.70
2017,05,23,18,17,25.70
2017,05,23,18,18,16.10
2017,05,23,18,19,12.90
2017,05,23,18,20,8.10
2017,05,23,18,21,12.90
2017,05,23,18,22,27.40
2017,05,23,18,23,20.90
2017,05,23,18,24,14.50
2017,05,23,18,25,9.60
2017,05,23,18,26,11.30
2017,05,23,18,27,40.20
2017,05,23,18,28,24.20
2017,05,23,18,29,24.20
2017,05,23,18,30,30.60
2017,05,23,18,31,22.50
2017,05,23,18,32,17.70
2017,05,23,18,33,20.90
2017,05,23,18,34,16.10
2017,05,23,18,35,16.10
2017,05,23,18,36,22.50
2017,05,23,18,37,25.70
2017,05,23,18,38,27.40
2017,05,23,18,39,25.70
2017,05,23,18,40,22.50
2017,05,23,18,41,25.70
2017,05,23,18,42,24.20
2017,05,23,18,43,19.30
2017,05,23,18,44,24.20
2017,05,23,18,45,20.90
2017,05,23,18,46,16.10
2017,05,23,18,47,9.60
2017,05,23,18,48,20.90
2017,05,23,18,49,22.50
2017,05,23,18,50,16.10
2017,05,23,18,51,20.90
2017,05,23,18,52,12.90
2017,05,23,18,53,12.90
2017,05,23,18,54,12.90
2017,05,23,18,55,16.10
2017,05,23,18,56,17.70
2017,05,23,18,57,17.70
2017,05,23,18,58,16.10
2017,05,23,18,59,19.30
2017,05,23,19,00,29.00
2017,05,23,19,01,30.60
2017,05,23,19,02,25.70
2017,05,23,19,03,19.30
2017,05,23,19,04,17.70
2017,05,23,19,05,17.70
2017,05,23,19,06,20.90
2017,05,23,19,07,27.40
2017,05,23,19,08,35.40
2017,05,23,19,09,20.90
2017,05,23,19,10,22.50
2017,05,23,19,11,20.90
2017,05,23,19,12,22.50
2017,05,23,19,13,30.60
2017,05,23,19,14,22.50
2017,05,23,19,15,16.10
2017,05,23,19,16,24.20
2017,05,23,19,17,27.40
2017,05,23,19,18,29.00
2017,05,23,19,19,30.60
2017,05,23,19,20,19.30
2017,05,23,19,21,29.00
2017,05,23,19,22,25.70
2017,05,23,19,23,19.30
2017,05,23,19,24,22.50
2017,05,23,19,25,12.90
2017,05,23,19,26,12.90
2017,05,23,19,27,12.90
2017,05,23,19,28,20.90
2017,05,23,19,29,24.20
2017,05,23,19,30,27.40
2017,05,23,19,31,32.20
2017,05,23,19,32,25.70
2017,05,23,19,33,25.70
2017,05,23,19,34,27.40
2017,05,23,19,35,24.20
2017,05,23,19,36,19.30
2017,05,23,19,37,20.90
2017,05,23,19,38,24.20
2017,05,23,19,39,25.70
2017,05,23,19,40,25.70
2017,05,23,19,41,40.20
2017,05,23,19,42,27.40
2017,05,23,19,43,27.40
2017,05,23,19,44,20.90
2017,05,23,19,45,19.30
2017,05,23,19,46,11.30
2017,05,23,19,47,9.60
2017,05,23,19,48,20.90
2017,05,23,19,49,16.10
2017,05,23,19,50,16.10
2017,05,23,19,51,6.40
2017,05,23,19,52,12.90
2017,05,23,19,53,16.10
2017,05,23,19,54,12.90
2017,05,23,19,55,9.60
2017,05,23,19,56,11.30
2017,05,23,19,57,9.60
2017,05,23,19,58,9.60
2017,05,23,19,59,12.90
2017,05,23,20,00,12.90
2017,05,23,20,01,9.60
2017,05,23,20,02,8.10
2017,05,23,20,03,9.60
2017,05,23,20,04,11.30
2017,05,23,20,05,12.90
2017,05,23,20,06,9.60
2017,05,23,20,07,11.30
2017,05,23,20,08,9.60
2017,05,23,20,09,12.90
2017,05,23,20,10,12.90
2017,05,23,20,11,11.30
2017,05,23,20,12,12.90
2017,05,23,20,13,6.40
2017,05,23,20,14,8.10
2017,05,23,20,15,8.10
2017,05,23,20,16,6.40
2017,05,23,20,17,6.40
2017,05,23,20,18,8.10
2017,05,23,20,19,8.10
2017,05,23,20,20,9.60
2017,05,23,20,21,9.60
2017,05,23,20,22,9.60
2017,05,23,20,23,11.30
2017,05,23,20,24,14.50
2017,05,23,20,25,14.50
2017,05,23,20,26,17.70
2017,05,23,20,27,16.10
2017,05,23,20,28,20.90
2017,05,23,20,29,16.10
2017,05,23,20,30,14.50
2017,05,23,20,31,16.10
2017,05,23,20,32,14.50
2017,05,23,20,33,14.50
2017,05,23,20,34,9.60
2017,05,23,20,35,8.10
2017,05,23,20,36,11.30
2017,05,23,20,37,12.90
2017,05,23,20,38,9.60
2017,05,23,20,39,8.10
2017,05,23,20,40,8.10
2017,05,23,20,41,9.60
2017,05,23,20,42,9.60
2017,05,23,20,43,8.10
2017,05,23,20,44,6.40
2017,05,23,20,45,3.20
2017,05,23,20,46,3.20
2017,05,23,20,47,6.40
2017,05,23,20,48,6.40
2017,05,23,20,49,3.20
2017,05,23,20,50,3.20
2017,05,23,20,51,1.60
2017,05,23,20,52,1.60
2017,05,23,20,53,6.40
2017,05,23,20,54,6.40
2017,05,23,20,55,8.10
2017,05,23,20,56,9.60
2017,05,23,20,57,8.10
2017,05,23,20,58,6.40
2017,05,23,20,59,9.60
2017,05,23,21,00,8.10
2017,05,23,21,01,8.10
2017,05,23,21,02,4.80
2017,05,23,21,03,4.80
2017,05,23,21,04,4.80
2017,05,23,21,05,3.20
2017,05,23,21,06,3.20
2017,05,23,21,07,6.40
2017,05,23,21,08,3.20
2017,05,23,21,09,6.40
2017,05,23,21,10,6.40
2017,05,23,21,11,4.80
2017,05,23,21,12,3.20
2017,05,23,21,13,4.80
2017,05,23,21,14,4.80
2017,05,23,21,15,8.10
2017,05,23,21,16,8.10
2017,05,23,21,17,8.10
2017,05,23,21,18,6.40
2017,05,23,21,19,8.10
2017,05,23,21,20,8.10
2017,05,23,21,21,8.10
2017,05,23,21,22,6.40
2017,05,23,21,23,8.10
2017,05,23,21,24,8.10
2017,05,23,21,25,6.40
2017,05,23,21,26,3.20
2017,05,23,21,27,8.10
2017,05,23,21,28,8.10
2017,05,23,21,29,6.40
2017,05,23,21,30,3.20
2017,05,23,21,31,3.20
2017,05,23,21,32,1.60
2017,05,23,21,33,1.60
2017,05,23,21,34,1.60
2017,05,23,21,35,1.60
2017,05,23,21,48,3.20
2017,05,23,21,49,4.80
2017,05,23,21,50,1.60
2017,05,23,21,52,3.20
2017,05,23,21,53,8.10
2017,05,23,21,54,8.10
2017,05,23,21,55,6.40
2017,05,23,21,56,6.40
2017,05,23,21,57,6.40
2017,05,23,21,58,8.10
2017,05,23,21,59,6.40
2017,05,23,22,00,4.80
2017,05,23,22,01,1.60
2017,05,23,22,02,3.20
2017,05,23,22,03,6.40
2017,05,23,22,04,6.40
2017,05,23,22,05,4.80
2017,05,23,22,06,3.20
2017,05,23,22,07,4.80
2017,05,23,22,08,4.80
2017,05,23,22,09,4.80
2017,05,23,22,10,4.80
2017,05,23,22,11,4.80
2017,05,23,22,12,3.20
2017,05,23,22,13,4.80
2017,05,23,22,14,3.20
2017,05,23,22,15,1.60
2017,05,23,22,16,1.60
2017,05,23,22,17,1.60
2017,05,23,22,20,1.60
2017,05,23,22,21,3.20
2017,05,23,22,22,1.60
2017,05,23,22,26,3.20
2017,05,23,22,27,6.40
2017,05,23,22,28,6.40
2017,05,23,22,29,3.20
2017,05,23,22,30,6.40
2017,05,23,22,31,6.40
2017,05,23,22,32,6.40
2017,05,23,22,33,8.10
2017,05,23,22,34,6.40
2017,05,23,22,35,6.40
2017,05,23,22,39,3.20
2017,05,23,22,40,3.20
2017,05,23,22,43,1.60
2017,05,23,22,44,1.60
2017,05,23,22,45,1.60
2017,05,23,22,46,1.60
2017,05,23,22,58,6.40
2017,05,23,22,59,6.40
2017,05,23,23,00,3.20
2017,05,23,23,01,1.60
2017,05,23,23,03,6.40
2017,05,23,23,04,8.10
2017,05,23,23,05,6.40
2017,05,23,23,06,1.60
2017,05,23,23,07,6.40
2017,05,23,23,08,4.80
2017,05,23,23,09,3.20
2017,05,23,23,10,4.80
2017,05,23,23,11,4.80
2017,05,23,23,12,6.40
2017,05,23,23,13,11.30
2017,05,23,23,14,4.80
2017,05,23,23,15,8.10
2017,05,23,23,16,6.40
2017,05,23,23,17,6.40
2017,05,23,23,18,4.80
2017,05,23,23,19,1.60
2017,05,23,23,20,1.60
2017,05,23,23,23,1.60
2017,05,23,23,24,1.60
2017,05,23,23,30,4.80
2017,05,23,23,31,3.20
2017,05,23,23,32,1.60
2017,05,23,23,33,3.20
2017,05,23,23,34,3.20
2017,05,23,23,37,3.20
2017,05,23,23,38,3.20
2017,05,23,23,39,4.80
2017,05,23,23,40,6.40
2017,05,23,23,41,6.40
2017,05,23,23,42,6.40
2017,05,23,23,43,3.20
2017,05,23,23,45,3.20
2017,05,23,23,46,6.40
2017,05,23,23,47,8.10
2017,05,23,23,48,3.20
2017,05,23,23,49,8.10
2017,05,23,23,50,3.20
2017,05,23,23,51,3.20
2017,05,23,23,52,1.60
2017,05,23,23,53,4.80
2017,05,23,23,54,6.40
2017,05,23,23,55,8.10
2017,05,23,23,56,6.40
2017,05,23,23,57,3.20
2017,05,23,23,58,6.40
2017,05,23,23,59,8.10
